Weather History for KASX - March, 2013

Change the Weather History Date:

Tuesday, March 19, 2013

  Actual Average (KHYR) Record (KHYR)
Temperature  
Mean Temperature 19 °F -  
Max Temperature 26 °F 43 °F - (-1)
Min Temperature 12 °F 20 °F - (-1)
Degree Days  
Heating Degree Days 46    
Moisture  
Dew Point 8 °F    
Average Humidity 67    
Maximum Humidity 86    
Minimum Humidity 43    
Precipitation  
Precipitation 0.00 in - - ()
Sea Level Pressure  
Sea Level Pressure 29.79 in    
Wind  
Wind Speed 16 mph (WNW)    
Max Wind Speed 25 mph    
Max Gust Speed 36 mph    
Visibility 6 miles    
Events Snow    
Averages and records for this station are not official NWS values.
T = Trace of Precipitation, MM = Missing Value Source: NWS Daily Summary

Daily Weather History Graph

Daily Weather History Graph

Search for Another Location

Airport or City:

Trip Planner

Search our weather history database for the weather conditions in past years. The results will help you decide how hot, cold, wet, or windy it might be!

Date:

Astronomy

Mar. 19, 2013 Rise Set
Actual Time 7:08 AM CDT 7:15 PM CDT
Civil Twilight 6:38 AM CDT 7:45 PM CDT
Nautical Twilight 6:02 AM CDT 8:20 PM CDT
Astronomical Twilight 5:26 AM CDT 8:57 PM CDT
Moon 11:38 AM CDT (3/19) 2:22 AM CDT (3/19)
Length of Visible Light 13h 07m
Length of Day
12h 07m
Waxing Crescent, 50% of the Moon is Illuminated
Mar 19
Waxing Crescent
Mar 19
First Quarter
Mar 27
Full
Apr 2
Last Quarter
Apr 10
New

Hourly Weather History & Observations

Time (CDT) Temp. Windchill Dew Point Humidity Pressure Visibility Wind Dir Wind Speed Gust Speed Precip Events Conditions
12:09 AM 21.2 °F 8.9 °F 17.6 °F 86% 29.53 in 2.0 mi West 12.7 mph - 0.00 in Snow Light Snow
1:53 AM 18.0 °F 4.2 °F 12.9 °F 81% 29.58 in 5.0 mi West 13.8 mph 23.0 mph 0.00 in Snow Light Snow
2:53 AM 17.1 °F 0.6 °F 12.0 °F 81% 29.61 in 5.0 mi West 19.6 mph 24.2 mph 0.00 in Snow Light Snow
3:53 AM 16.0 °F 1.1 °F 10.9 °F 81% 29.63 in 7.0 mi West 15.0 mph - 0.00 in Snow Light Snow
4:53 AM 16.0 °F 4.4 °F 10.0 °F 77% 29.65 in 6.0 mi West 9.2 mph 21.9 mph 0.00 in Snow Light Snow
5:53 AM 15.1 °F -1.1 °F 9.0 °F 77% 29.68 in 2.5 mi West 17.3 mph 28.8 mph 0.00 in Snow Light Snow
6:07 AM 15.8 °F -0.2 °F 8.6 °F 73% 29.64 in 3.0 mi West 17.3 mph 29.9 mph 0.00 in Snow Light Snow
6:16 AM 15.8 °F 0.9 °F 8.6 °F 73% 29.65 in 3.0 mi West 15.0 mph 26.5 mph 0.00 in Snow Light Snow
6:23 AM 15.8 °F -0.6 °F 8.6 °F 73% 29.66 in 2.5 mi West 18.4 mph 25.3 mph 0.00 in Snow Light Snow
6:36 AM 15.8 °F -0.2 °F 8.6 °F 73% 29.66 in 3.0 mi West 17.3 mph 29.9 mph 0.00 in Snow Light Snow
6:53 AM 14.0 °F -0.8 °F 8.1 °F 77% 29.72 in 2.5 mi West 13.8 mph 24.2 mph 0.00 in Snow Light Snow
7:42 AM 12.2 °F -3.1 °F 8.6 °F 85% 29.70 in 3.0 mi West 13.8 mph 23.0 mph 0.00 in Snow Light Snow
7:49 AM 12.2 °F -3.7 °F 8.6 °F 85% 29.70 in 2.5 mi West 15.0 mph 20.7 mph 0.00 in Snow Light Snow
7:53 AM 12.9 °F -1.6 °F 8.1 °F 81% 29.75 in 2.0 mi West 12.7 mph 20.7 mph 0.00 in Snow Light Snow
8:02 AM 12.2 °F -4.3 °F 8.6 °F 85% 29.71 in 1.5 mi West 16.1 mph 23.0 mph 0.00 in Snow Light Snow
8:53 AM 14.0 °F -3.0 °F 8.1 °F 77% 29.77 in 1.8 mi West 18.4 mph 28.8 mph 0.00 in Snow Light Snow
9:18 AM 15.8 °F 0.3 °F 8.6 °F 73% 29.72 in 0.8 mi WNW 16.1 mph 28.8 mph 0.00 in Snow Light Snow
9:31 AM 15.8 °F -2.3 °F 8.6 °F 73% 29.73 in 1.0 mi WNW 23.0 mph 33.4 mph 0.00 in Snow Light Snow
9:39 AM 15.8 °F -1.5 °F 8.6 °F 73% 29.73 in 3.0 mi WNW 20.7 mph 34.5 mph 0.00 in Snow Light Snow
9:51 AM 17.6 °F 1.7 °F 8.6 °F 68% 29.74 in 6.0 mi West 18.4 mph 33.4 mph 0.00 in   Haze
9:53 AM 17.1 °F -0.3 °F 8.1 °F 68% 29.79 in 7.0 mi WNW 21.9 mph 34.5 mph 0.00 in   Overcast
10:53 AM 17.1 °F 0.6 °F 7.0 °F 65% 29.82 in 10.0 mi West 19.6 mph 33.4 mph N/A   Overcast
11:53 AM 19.0 °F 2.0 °F 8.1 °F 62% 29.83 in 10.0 mi West 23.0 mph 34.5 mph N/A   Clear
12:53 PM 21.0 °F 5.0 °F 7.0 °F 55% 29.84 in 10.0 mi West 21.9 mph 32.2 mph N/A   Clear
1:53 PM 24.1 °F 8.0 °F 8.1 °F 51% 29.86 in 9.0 mi WNW 25.3 mph 35.7 mph N/A   Clear
2:53 PM 25.0 °F 9.9 °F 7.0 °F 46% 29.88 in 10.0 mi WNW 23.0 mph 34.5 mph N/A   Clear
3:53 PM 26.1 °F 11.6 °F 6.1 °F 43% 29.91 in 10.0 mi West 21.9 mph 31.1 mph N/A   Clear
4:53 PM 26.1 °F 15.0 °F 6.1 °F 43% 29.93 in 10.0 mi WNW 12.7 mph 28.8 mph N/A   Clear
5:53 PM 24.1 °F 12.5 °F 5.0 °F 44% 29.96 in 10.0 mi WNW 12.7 mph 25.3 mph N/A   Clear
6:53 PM 23.0 °F 10.6 °F 3.9 °F 44% 29.98 in 10.0 mi WNW 13.8 mph 28.8 mph N/A   Clear
7:53 PM 21.0 °F 7.6 °F 3.0 °F 46% 30.00 in 10.0 mi WNW 15.0 mph 24.2 mph N/A   Clear
8:53 PM 19.9 °F 8.6 °F 3.9 °F 50% 30.02 in 10.0 mi WNW 10.4 mph 21.9 mph N/A   Mostly Cloudy
9:53 PM 19.9 °F 7.3 °F 6.1 °F 55% 30.04 in 10.0 mi WNW 12.7 mph - N/A   Overcast
10:53 PM 18.0 °F 3.6 °F 5.0 °F 57% 30.04 in 10.0 mi WNW 15.0 mph 21.9 mph N/A   Overcast
11:53 PM 15.1 °F 1.8 °F 3.0 °F 59% 30.05 in 10.0 mi West 11.5 mph 19.6 mph N/A   Mostly Cloudy